| time (UTC) | temp C | wind direction | speed KPH | gust KPH | rain 1hr cm | rain 24hr cm | rain mn cm | humidity % | barometer mb |
| 20260510160532 | 13 | 260 | 4.8 | 8.0 | 0.00 | 0.33 | 0.33 | 80 | 1017.1 |
| 20260510160031 | 12 | 244 | 3.2 | 4.8 | 0.00 | 0.33 | 0.33 | 86 | 1017.4 |
| 20260510155528 | 12 | 229 | 6.4 | 9.7 | 0.00 | 0.33 | 0.33 | 93 | 1017.1 |
| 20260510155025 | 11 | 154 | 4.8 | 8.0 | 0.00 | 0.33 | 0.33 | 99 | 1017.4 |
| 20260510154520 | 11 | 239 | 1.6 | 3.2 | 0.00 | 0.33 | 0.33 | 99 | 1017.4 |
| 20260510154015 | 11 | 188 | 0.0 | 0.0 | 0.00 | 0.33 | 0.33 | 99 | 1017.5 |
| 20260510153510 | 11 | 195 | 0.0 | 1.6 | 0.00 | 0.33 | 0.33 | 99 | 1017.4 |
| 20260510153007 | 12 | 189 | 0.0 | 0.0 | 0.00 | 0.33 | 0.33 | 99 | 1017.3 |
| 20260510152504 | 11 | 178 | 0.0 | 0.0 | 0.18 | 0.33 | 0.33 | 99 | 1017.0 |
| 20260510152000 | 11 | 178 | 0.0 | 1.6 | 0.18 | 0.33 | 0.33 | 99 | 1016.8 |
| 20260510151458 | 11 | 169 | 1.6 | 1.6 | 0.13 | 0.30 | 0.30 | 99 | 1016.7 |
| 20260510150954 | 11 | 183 | 0.0 | 0.0 | 0.13 | 0.30 | 0.30 | 99 | 1016.6 |
| 20260510150450 | 11 | 178 | 0.0 | 0.0 | 0.18 | 0.28 | 0.28 | 99 | 1016.5 |
| 20260510145946 | 11 | 178 | 0.0 | 0.0 | 0.18 | 0.28 | 0.28 | 99 | 1016.5 |
| 20260510145442 | 11 | 174 | 0.0 | 0.0 | 0.00 | 0.25 | 0.25 | 99 | 1016.6 |
| 20260510144939 | 11 | 174 | 0.0 | 0.0 | 0.00 | 0.25 | 0.25 | 99 | 1016.3 |
| 20260510144436 | 11 | 186 | 0.0 | 0.0 | 0.00 | 0.25 | 0.25 | 99 | 1016.5 |
| 20260510143931 | 11 | 178 | 0.0 | 0.0 | 0.00 | 0.25 | 0.25 | 99 | 1016.5 |
| 20260510143427 | 11 | 179 | 0.0 | 0.0 | 0.00 | 0.25 | 0.25 | 99 | 1016.3 |
| 20260510142925 | 11 | 183 | 0.0 | 0.0 | 0.00 | 0.25 | 0.25 | 99 | 1016.3 |
| 20260510142421 | 11 | 183 | 0.0 | 0.0 | 0.13 | 0.25 | 0.25 | 99 | 1016.2 |
| 20260510141917 | 11 | 178 | 0.0 | 0.0 | 0.13 | 0.25 | 0.25 | 99 | 1016.3 |
| 20260510141415 | 11 | 175 | 1.6 | 1.6 | 0.18 | 0.23 | 0.23 | 99 | 1016.0 |
| 20260510140912 | 11 | 183 | 0.0 | 0.0 | 0.18 | 0.23 | 0.23 | 99 | 1015.8 |
| 20260510140408 | 11 | 173 | 1.6 | 1.6 | 0.13 | 0.20 | 0.20 | 99 | 1016.1 |
| 20260510135907 | 11 | 188 | 1.6 | 1.6 | 0.30 | 0.20 | 0.20 | 99 | 1016.3 |
| 20260510135404 | 11 | 165 | 1.6 | 1.6 | 0.66 | 0.18 | 0.18 | 99 | 1015.8 |
| 20260510134901 | 11 | 183 | 0.0 | 0.0 | 0.79 | 0.15 | 0.15 | 98 | 1015.8 |
| 20260510134357 | 11 | 172 | 1.6 | 1.6 | 0.48 | 0.10 | 0.10 | 98 | 1016.2 |
| 20260510133853 | 11 | 183 | 0.0 | 1.6 | 0.00 | 0.03 | 0.03 | 98 | 1016.4 |
| 20260510133350 | 11 | 196 | 1.6 | 3.2 | 0.00 | 0.03 | 0.03 | 97 | 1015.9 |
| 20260510132845 | 11 | 172 | 1.6 | 1.6 | 0.00 | 0.03 | 0.03 | 97 | 1015.8 |
| 20260510132344 | 11 | 182 | 1.6 | 3.2 | 0.00 | 0.03 | 0.03 | 97 | 1015.7 |
| 20260510131840 | 11 | 179 | 1.6 | 3.2 | 0.00 | 0.03 | 0.03 | 97 | 1015.8 |
| 20260510131338 | 11 | 186 | 1.6 | 1.6 | 0.00 | 0.03 | 0.03 | 97 | 1015.7 |
| 20260510130834 | 11 | 177 | 1.6 | 1.6 | 0.00 | 0.03 | 0.03 | 97 | 1015.8 |
| 20260510130331 | 11 | 173 | 3.2 | 4.8 | 0.00 | 0.03 | 0.03 | 97 | 1015.8 |
| 20260510125827 | 11 | 176 | 1.6 | 1.6 | 0.00 | 0.03 | 0.03 | 97 | 1015.6 |
| 20260510125324 | 11 | 183 | 0.0 | 0.0 | 0.00 | 0.03 | 0.03 | 97 | 1015.5 |
| 20260510124821 | 11 | 184 | 1.6 | 1.6 | 0.00 | 0.03 | 0.03 | 98 | 1015.6 |
| 20260510124318 | 11 | 182 | 1.6 | 1.6 | 0.00 | 0.03 | 0.03 | 98 | 1015.5 |
| 20260510123813 | 11 | 203 | 3.2 | 3.2 | 0.00 | 0.03 | 0.03 | 98 | 1015.6 |
| 20260510123309 | 11 | 172 | 0.0 | 1.6 | 0.00 | 0.03 | 0.03 | 98 | 1015.8 |
| 20260510122806 | 11 | 179 | 1.6 | 1.6 | 0.00 | 0.03 | 0.03 | 99 | 1015.5 |
| 20260510122305 | 11 | 188 | 0.0 | 0.0 | 0.00 | 0.03 | 0.03 | 99 | 1015.6 |
| 20260510121758 | 11 | 172 | 0.0 | 1.6 | 0.00 | 0.03 | 0.03 | 99 | 1015.6 |
| 20260510121256 | 11 | 187 | 1.6 | 1.6 | 0.00 | 0.03 | 0.03 | 99 | 1015.5 |
| 20260510120753 | 11 | 183 | 1.6 | 1.6 | 0.00 | 0.03 | 0.03 | 99 | 1015.3 |
| 20260510120249 | 11 | 187 | 1.6 | 1.6 | 0.00 | 0.03 | 0.03 | 99 | 1015.3 |
| 20260510115745 | 11 | 178 | 3.2 | 3.2 | 0.00 | 0.03 | 0.03 | 99 | 1015.2 |
| 20260510115244 | 11 | 201 | 3.2 | 8.0 | 0.00 | 0.03 | 0.03 | 99 | 1015.1 |
| 20260510114738 | 11 | 175 | 3.2 | 4.8 | 0.13 | 0.03 | 0.03 | 99 | 1015.2 |
| 20260510114236 | 11 | 168 | 1.6 | 3.2 | 0.13 | 0.03 | 0.03 | 99 | 1015.1 |
| 20260510113731 | 11 | 208 | 4.8 | 4.8 | 0.00 | 0.00 | 0.00 | 99 | 1015.3 |
| 20260510113228 | 10 | 209 | 1.6 | 1.6 | 0.00 | 0.00 | 0.00 | 99 | 1015.3 |
| 20260510112725 | 10 | 189 | 1.6 | 1.6 | 0.00 | 0.00 | 0.00 | 99 | 1015.2 |
| 20260510112221 | 10 | 189 | 1.6 | 1.6 | 0.00 | 0.00 | 0.00 | 99 | 1015.3 |
| 20260510111717 | 10 | 130 | 4.8 | 8.0 | 0.00 | 0.00 | 0.00 | 99 | 1015.2 |
| 20260510111214 | 10 | 171 | 1.6 | 1.6 | 0.00 | 0.00 | 0.00 | 99 | 1015.0 |
| 20260510110709 | 10 | 164 | 1.6 | 4.8 | 0.00 | 0.00 | 0.00 | 99 | 1015.1 |
| 20260510110207 | 10 | 144 | 3.2 | 3.2 | 0.00 | 0.00 | 0.00 | 99 | 1015.0 |
| 20260510105706 | 10 | 174 | 1.6 | 3.2 | 0.00 | 0.00 | 0.00 | 99 | 1015.0 |
| 20260510105201 | 10 | 160 | 1.6 | 3.2 | 0.00 | 0.00 | 0.00 | 99 | 1014.7 |
| 20260510104658 | 10 | 161 | 4.8 | 4.8 | 0.00 | 0.00 | 0.00 | 99 | 1014.7 |
| 20260510104155 | 10 | 172 | 0.0 | 1.6 | 0.00 | 0.00 | 0.00 | 99 | 1014.5 |
| 20260510103652 | 10 | 187 | 0.0 | 1.6 | 0.00 | 0.00 | 0.00 | 99 | 1014.7 |
| 20260510103149 | 10 | 178 | 0.0 | 1.6 | 0.00 | 0.00 | 0.00 | 99 | 1014.6 |
| 20260510102648 | 10 | 153 | 3.2 | 3.2 | 0.00 | 0.00 | 0.00 | 99 | 1014.2 |
| 20260510102145 | 10 | 159 | 3.2 | 3.2 | 0.00 | 0.00 | 0.00 | 99 | 1014.4 |
| 20260510101642 | 10 | 198 | 3.2 | 4.8 | 0.00 | 0.00 | 0.00 | 99 | 1014.2 |
| 20260510101141 | 10 | 190 | 3.2 | 3.2 | 0.00 | 0.00 | 0.00 | 99 | 1014.2 |
| 20260510100636 | 10 | 183 | 0.0 | 0.0 | 0.00 | 0.00 | 0.00 | 99 | 1014.3 |
| 20260510100134 | -17 | 0.0 | 0.0 | 0.00 | 0.00 | 0.00 | 1014.2 | ||
| 20260510095629 | -17 | 0.0 | 0.0 | 0.00 | 0.00 | 0.00 | 1014.3 | ||
| 20260510095125 | -17 | 0.0 | 0.0 | 0.00 | 0.00 | 0.00 | 1014.0 | ||
| 20260510094623 | -17 | 0.0 | 0.0 | 0.00 | 0.00 | 0.00 | 1014.3 | ||
| 20260510094119 | 10 | 190 | 1.6 | 3.2 | 0.00 | 0.00 | 0.00 | 99 | 1014.0 |
| 20260510093616 | 10 | 190 | 1.6 | 3.2 | 0.00 | 0.00 | 0.00 | 99 | 1014.0 |
| 20260510093113 | 10 | 166 | 3.2 | 4.8 | 0.00 | 0.00 | 0.00 | 99 | 1013.6 |
| 20260510092609 | 10 | 202 | 1.6 | 1.6 | 0.00 | 0.00 | 0.00 | 99 | 1013.4 |
| 20260510092109 | 10 | 177 | 1.6 | 1.6 | 0.00 | 0.00 | 0.00 | 99 | 1013.4 |
| 20260510091606 | 10 | 193 | 1.6 | 3.2 | 0.00 | 0.00 | 0.00 | 99 | 1013.7 |
| 20260510091102 | 10 | 193 | 6.4 | 8.0 | 0.00 | 0.00 | 0.00 | 99 | 1013.5 |
| 20260510090559 | 10 | 193 | 6.4 | 8.0 | 0.00 | 0.00 | 0.00 | 99 | 1013.6 |
| 20260510090055 | 10 | 188 | 1.6 | 1.6 | 0.00 | 0.00 | 0.00 | 99 | 1013.6 |
| 20260510085550 | 10 | 188 | 1.6 | 1.6 | 0.00 | 0.00 | 0.00 | 99 | 1013.7 |
| 20260510085046 | 10 | 192 | 0.0 | 1.6 | 0.00 | 0.00 | 0.00 | 99 | 1013.7 |
| 20260510084543 | 10 | 192 | 0.0 | 1.6 | 0.00 | 0.00 | 0.00 | 99 | 1013.7 |
| 20260510084040 | 10 | 170 | 0.0 | 0.0 | 0.00 | 0.00 | 0.00 | 99 | 1013.6 |
| 20260510083536 | 10 | 170 | 0.0 | 0.0 | 0.00 | 0.00 | 0.00 | 99 | 1013.6 |
| 20260510083032 | -17 | 0.0 | 0.0 | 0.00 | 0.00 | 0.00 | 1013.6 | ||
| 20260510082529 | -17 | 0.0 | 0.0 | 0.00 | 0.00 | 0.00 | 1013.8 | ||
| 20260510082025 | 10 | 182 | 1.6 | 1.6 | 0.00 | 0.00 | 0.00 | 99 | 1014.0 |
| 20260510081520 | 10 | 182 | 1.6 | 1.6 | 0.00 | 0.00 | 0.00 | 99 | 1013.8 |
| 20260510081016 | 10 | 174 | 1.6 | 1.6 | 0.00 | 0.00 | 0.00 | 99 | 1013.6 |
| 20260510080515 | 10 | 180 | 1.6 | 1.6 | 0.00 | 0.00 | 0.00 | 99 | 1013.6 |
| 20260510080012 | 10 | 175 | 1.6 | 3.2 | 0.00 | 0.00 | 0.00 | 99 | 1013.9 |
| 20260510075510 | 10 | 185 | 3.2 | 3.2 | 0.00 | 0.00 | 0.00 | 99 | 1013.6 |
| 20260510075006 | 10 | 185 | 3.2 | 3.2 | 0.00 | 0.00 | 0.00 | 99 | 1013.2 |
| 20260510074504 | 10 | 183 | 0.0 | 1.6 | 0.00 | 0.00 | 0.00 | 99 | 1013.1 |
| 20260510073959 | 10 | 164 | 1.6 | 1.6 | 0.00 | 0.00 | 0.00 | 99 | 1013.2 |
| 20260510073455 | 10 | 150 | 3.2 | 3.2 | 0.00 | 0.00 | 0.00 | 99 | 1012.7 |
| 20260510072952 | 10 | 150 | 1.6 | 3.2 | 0.00 | 0.00 | 0.00 | 99 | 1013.5 |
| 20260510072449 | 10 | 173 | 1.6 | 1.6 | 0.00 | 0.00 | 0.00 | 99 | 1013.8 |
| 20260510071944 | 10 | 179 | 1.6 | 1.6 | 0.00 | 0.00 | 0.00 | 99 | 1013.8 |
| 20260510071441 | 10 | 175 | 1.6 | 1.6 | 0.00 | 0.00 | 0.00 | 99 | 1013.9 |
| 20260510070939 | 10 | 172 | 1.6 | 1.6 | 0.00 | 0.00 | 0.00 | 99 | 1014.0 |
| 20260510070436 | 10 | 174 | 1.6 | 1.6 | 0.00 | 0.00 | 0.00 | 99 | 1014.1 |
| 20260510065932 | 10 | 172 | 0.0 | 0.0 | 0.00 | 0.00 | 0.00 | 99 | 1014.0 |
| 20260510065429 | -17 | 0.0 | 0.0 | 0.00 | 0.00 | 0.00 | 1014.0 | ||
| 20260510064924 | -17 | 0.0 | 0.0 | 0.00 | 0.00 | 0.00 | 1014.2 | ||
| 20260510064423 | -17 | 0.0 | 0.0 | 0.00 | 0.00 | 0.00 | 1014.3 | ||
| 20260510063919 | -17 | 0.0 | 0.0 | 0.00 | 0.00 | 0.00 | 1014.4 | ||
| 20260510063415 | 10 | 198 | 3.2 | 3.2 | 0.00 | 0.00 | 0.00 | 99 | 1014.4 |
| 20260510062913 | 10 | 198 | 3.2 | 3.2 | 0.00 | 0.00 | 0.00 | 99 | 1014.4 |
| 20260510062408 | 10 | 176 | 1.6 | 1.6 | 0.00 | 0.00 | 0.00 | 99 | 1014.3 |
| 20260510061904 | 10 | 183 | 1.6 | 1.6 | 0.00 | 0.00 | 0.00 | 99 | 1014.3 |
| 20260510061400 | 10 | 182 | 0.0 | 1.6 | 0.00 | 0.00 | 0.00 | 99 | 1014.2 |
| 20260510060856 | 10 | 173 | 1.6 | 1.6 | 0.00 | 0.00 | 0.00 | 99 | 1014.0 |
| 20260510060354 | 10 | 238 | 0.0 | 3.2 | 0.00 | 0.00 | 0.00 | 99 | 1014.0 |
| 20260510055850 | 10 | 183 | 0.0 | 0.0 | 0.00 | 0.00 | 0.00 | 99 | 1014.0 |
| 20260510055350 | 10 | 176 | 0.0 | 0.0 | 0.00 | 0.00 | 0.00 | 99 | 1014.1 |
| 20260510054848 | 10 | 182 | 0.0 | 0.0 | 0.00 | 0.00 | 0.00 | 99 | 1013.9 |
| 20260510054344 | 10 | 184 | 0.0 | 1.6 | 0.00 | 0.00 | 0.00 | 99 | 1014.1 |
| 20260510053839 | 10 | 187 | 0.0 | 0.0 | 0.00 | 0.00 | 0.00 | 99 | 1013.8 |
| 20260510053335 | 10 | 187 | 0.0 | 0.0 | 0.00 | 0.00 | 0.00 | 99 | 1013.8 |
| 20260510052832 | 10 | 188 | 0.0 | 0.0 | 0.00 | 0.00 | 0.00 | 99 | 1013.7 |
| 20260510052327 | 10 | 186 | 0.0 | 1.6 | 0.00 | 0.00 | 0.00 | 99 | 1013.7 |
| 20260510051824 | 10 | 180 | 1.6 | 1.6 | 0.00 | 0.00 | 0.00 | 99 | 1013.5 |
| 20260510051321 | 10 | 185 | 0.0 | 0.0 | 0.00 | 0.00 | 0.00 | 99 | 1013.7 |
| 20260510050818 | 10 | 183 | 0.0 | 0.0 | 0.00 | 0.00 | 0.00 | 99 | 1013.6 |
| 20260510050314 | 10 | 183 | 0.0 | 1.6 | 0.00 | 0.00 | 0.00 | 99 | 1013.6 |
| 20260510045811 | 10 | 183 | 1.6 | 1.6 | 0.00 | 0.00 | 0.00 | 99 | 1013.5 |
| 20260510045308 | 10 | 179 | 1.6 | 1.6 | 0.00 | 0.00 | 0.00 | 99 | 1013.8 |
| 20260510044805 | 10 | 182 | 0.0 | 0.0 | 0.00 | 0.00 | 0.00 | 99 | 1014.0 |
| 20260510044302 | 10 | 177 | 1.6 | 3.2 | 0.00 | 0.00 | 0.00 | 99 | 1013.8 |
| 20260510043758 | 10 | 185 | 0.0 | 0.0 | 0.00 | 0.00 | 0.00 | 99 | 1013.7 |
| 20260510043254 | 10 | 186 | 1.6 | 1.6 | 0.00 | 0.00 | 0.00 | 99 | 1013.8 |
| 20260510042752 | 10 | 183 | 0.0 | 0.0 | 0.00 | 0.00 | 0.00 | 99 | 1013.9 |
| 20260510042247 | 10 | 188 | 0.0 | 0.0 | 0.00 | 0.00 | 0.00 | 99 | 1014.0 |
| 20260510041744 | 10 | 189 | 0.0 | 0.0 | 0.00 | 0.00 | 0.00 | 99 | 1013.9 |
| 20260510041242 | 10 | 185 | 0.0 | 0.0 | 0.00 | 0.00 | 0.00 | 99 | 1013.7 |
| 20260510040739 | 10 | 180 | 0.0 | 0.0 | 0.00 | 0.00 | 0.00 | 99 | 1013.8 |
| 20260510040236 | 10 | 176 | 0.0 | 0.0 | 0.00 | 0.00 | 0.00 | 99 | 1013.7 |
| 20260510035731 | 10 | 184 | 0.0 | 0.0 | 0.00 | 0.69 | 0.69 | 99 | 1013.8 |
| 20260510035227 | 10 | 188 | 0.0 | 0.0 | 0.00 | 0.69 | 0.69 | 99 | 1013.6 |
| 20260510034723 | 10 | 190 | 0.0 | 0.0 | 0.00 | 0.69 | 0.69 | 99 | 1013.8 |
| 20260510034221 | 10 | 185 | 0.0 | 0.0 | 0.00 | 0.69 | 0.69 | 99 | 1013.8 |
| 20260510033717 | 10 | 189 | 0.0 | 0.0 | 0.00 | 0.69 | 0.69 | 99 | 1013.6 |
| 20260510033215 | 10 | 188 | 0.0 | 0.0 | 0.00 | 0.69 | 0.69 | 99 | 1013.8 |
| 20260510032711 | 10 | 183 | 0.0 | 0.0 | 0.00 | 0.69 | 0.69 | 99 | 1013.6 |
| 20260510032207 | 10 | 183 | 0.0 | 0.0 | 0.00 | 0.69 | 0.69 | 99 | 1013.7 |
| 20260510031701 | 10 | 183 | 0.0 | 0.0 | 0.00 | 0.69 | 0.69 | 99 | 1013.6 |
| 20260510031158 | 10 | 176 | 0.0 | 0.0 | 0.00 | 0.69 | 0.69 | 99 | 1013.6 |
| 20260510030652 | 10 | 201 | 0.0 | 0.0 | 0.00 | 0.69 | 0.69 | 99 | 1013.7 |
| 20260510030150 | 10 | 193 | 0.0 | 0.0 | 0.00 | 0.69 | 0.69 | 99 | 1013.7 |
| 20260510025647 | 10 | 190 | 0.0 | 0.0 | 0.00 | 0.69 | 0.69 | 99 | 1013.9 |
| 20260510025144 | 10 | 190 | 0.0 | 0.0 | 0.00 | 0.69 | 0.69 | 99 | 1013.8 |
| 20260510024641 | 10 | 190 | 0.0 | 0.0 | 0.00 | 0.69 | 0.69 | 99 | 1013.7 |
| 20260510024138 | 10 | 190 | 0.0 | 0.0 | 0.00 | 0.69 | 0.69 | 99 | 1014.0 |
| 20260510023634 | 10 | 189 | 0.0 | 0.0 | 0.00 | 0.69 | 0.69 | 99 | 1013.9 |
| 20260510023131 | 10 | 187 | 0.0 | 0.0 | 0.00 | 0.69 | 0.69 | 99 | 1013.9 |
| 20260510022631 | 10 | 185 | 0.0 | 0.0 | 0.00 | 0.69 | 0.69 | 99 | 1013.9 |
| 20260510022126 | 10 | 183 | 0.0 | 0.0 | 0.00 | 0.69 | 0.69 | 99 | 1013.8 |
| 20260510021622 | 10 | 183 | 0.0 | 0.0 | 0.00 | 0.69 | 0.69 | 99 | 1013.8 |
| 20260510021120 | 10 | 190 | 0.0 | 0.0 | 0.00 | 0.69 | 0.69 | 99 | 1013.6 |
| 20260510020613 | 10 | 187 | 0.0 | 0.0 | 0.00 | 0.69 | 0.69 | 99 | 1013.7 |
| 20260510020110 | 10 | 187 | 0.0 | 0.0 | 0.00 | 0.69 | 0.69 | 99 | 1013.9 |
| 20260510015606 | 10 | 183 | 0.0 | 0.0 | 0.00 | 0.69 | 0.69 | 99 | 1013.9 |
| 20260510015102 | 10 | 183 | 0.0 | 0.0 | 0.00 | 0.69 | 0.69 | 99 | 1014.0 |
| 20260510014558 | 10 | 183 | 0.0 | 0.0 | 0.00 | 0.69 | 0.69 | 99 | 1013.8 |
| 20260510014056 | 10 | 183 | 0.0 | 0.0 | 0.00 | 0.69 | 0.69 | 99 | 1013.7 |
| 20260510013555 | 10 | 183 | 0.0 | 0.0 | 0.00 | 0.69 | 0.69 | 99 | 1013.8 |
| 20260510013051 | 10 | 178 | 0.0 | 0.0 | 0.00 | 0.69 | 0.69 | 99 | 1013.8 |
| 20260510012545 | 10 | 187 | 0.0 | 0.0 | 0.00 | 0.69 | 0.69 | 99 | 1013.9 |
| 20260510012043 | 10 | 189 | 0.0 | 0.0 | 0.00 | 0.69 | 0.69 | 99 | 1014.0 |
| 20260510011542 | 10 | 190 | 0.0 | 0.0 | 0.00 | 0.69 | 0.69 | 99 | 1013.8 |
| 20260510011038 | 10 | 186 | 0.0 | 0.0 | 0.00 | 0.69 | 0.69 | 99 | 1013.8 |
| 20260510010535 | 10 | 186 | 0.0 | 0.0 | 0.00 | 0.69 | 0.69 | 99 | 1013.9 |
| 20260510010032 | 10 | 186 | 0.0 | 0.0 | 0.00 | 0.69 | 0.69 | 99 | 1013.9 |
| 20260510005527 | 10 | 186 | 0.0 | 0.0 | 0.00 | 0.69 | 0.69 | 99 | 1013.9 |
| 20260510005026 | 10 | 186 | 0.0 | 0.0 | 0.00 | 0.69 | 0.69 | 99 | 1014.0 |
| 20260510004523 | 10 | 186 | 0.0 | 0.0 | 0.00 | 0.69 | 0.69 | 99 | 1013.9 |
| 20260510004021 | 10 | 186 | 0.0 | 0.0 | 0.00 | 0.69 | 0.69 | 99 | 1013.9 |
| 20260510003517 | 10 | 186 | 0.0 | 0.0 | 0.00 | 0.69 | 0.69 | 99 | 1013.9 |
| 20260510003012 | 10 | 193 | 0.0 | 0.0 | 0.00 | 0.69 | 0.69 | 99 | 1013.8 |
| 20260510002508 | 10 | 187 | 0.0 | 0.0 | 0.00 | 0.69 | 0.69 | 99 | 1013.9 |
| 20260510002005 | 10 | 188 | 0.0 | 0.0 | 0.00 | 0.69 | 0.69 | 99 | 1013.7 |
| 20260510001503 | 10 | 193 | 0.0 | 0.0 | 0.00 | 0.69 | 0.69 | 99 | 1013.5 |
| 20260510001001 | 10 | 192 | 0.0 | 0.0 | 0.00 | 0.69 | 0.69 | 99 | 1013.5 |
| 20260510000456 | 10 | 188 | 0.0 | 0.0 | 0.00 | 0.69 | 0.69 | 99 | 1013.4 |
| 20260509235952 | 10 | 192 | 0.0 | 0.0 | 0.00 | 0.69 | 0.69 | 99 | 1013.3 |
| 20260509235449 | 10 | 185 | 0.0 | 0.0 | 0.00 | 0.69 | 0.69 | 99 | 1013.1 |
| 20260509234945 | 10 | 188 | 0.0 | 0.0 | 0.00 | 0.69 | 0.69 | 99 | 1013.4 |
| 20260509234442 | 10 | 188 | 0.0 | 0.0 | 0.00 | 0.69 | 0.69 | 99 | 1013.4 |
| 20260509233941 | 10 | 186 | 0.0 | 0.0 | 0.00 | 0.69 | 0.69 | 99 | 1013.0 |
| 20260509233438 | 10 | 197 | 0.0 | 0.0 | 0.00 | 0.69 | 0.69 | 99 | 1013.2 |
| 20260509232934 | 10 | 186 | 0.0 | 0.0 | 0.00 | 0.69 | 0.69 | 99 | 1013.2 |
| 20260509232432 | 10 | 185 | 0.0 | 0.0 | 0.00 | 0.69 | 0.69 | 99 | 1013.2 |
| 20260509231927 | 10 | 189 | 0.0 | 0.0 | 0.00 | 0.69 | 0.69 | 99 | 1013.2 |
| 20260509231424 | 10 | 186 | 0.0 | 0.0 | 0.00 | 0.69 | 0.69 | 99 | 1013.1 |
| 20260509230922 | 10 | 189 | 0.0 | 0.0 | 0.00 | 0.69 | 0.69 | 99 | 1013.0 |
| 20260509230419 | 10 | 187 | 0.0 | 0.0 | 0.00 | 0.69 | 0.69 | 99 | 1013.0 |
| 20260509225915 | 10 | 187 | 0.0 | 0.0 | 0.00 | 0.69 | 0.69 | 99 | 1013.0 |
| 20260509225411 | 10 | 187 | 0.0 | 0.0 | 0.00 | 0.69 | 0.69 | 99 | 1013.1 |
| 20260509224908 | 10 | 182 | 0.0 | 0.0 | 0.00 | 0.69 | 0.69 | 99 | 1013.2 |
| 20260509224403 | 10 | 182 | 0.0 | 1.6 | 0.00 | 0.69 | 0.69 | 99 | 1013.1 |
| 20260509223901 | 10 | 187 | 0.0 | 0.0 | 0.00 | 0.69 | 0.69 | 99 | 1012.9 |
| 20260509223357 | 10 | 192 | 0.0 | 0.0 | 0.00 | 0.69 | 0.69 | 99 | 1013.0 |
| 20260509222854 | 10 | 189 | 0.0 | 0.0 | 0.00 | 0.69 | 0.69 | 99 | 1013.1 |
| 20260509222349 | 10 | 184 | 0.0 | 0.0 | 0.18 | 0.69 | 0.69 | 99 | 1013.0 |
| 20260509221844 | 10 | 189 | 0.0 | 0.0 | 0.18 | 0.69 | 0.69 | 99 | 1013.2 |
| 20260509221342 | 10 | 185 | 0.0 | 0.0 | 0.00 | 0.66 | 0.66 | 99 | 1013.2 |
| 20260509220837 | 10 | 186 | 0.0 | 0.0 | 0.00 | 0.66 | 0.66 | 99 | 1013.3 |
| 20260509220334 | 10 | 180 | 0.0 | 0.0 | 0.00 | 0.66 | 0.66 | 99 | 1013.1 |
| 20260509215829 | 9 | 188 | 0.0 | 0.0 | 0.00 | 0.66 | 0.66 | 99 | 1013.3 |
| 20260509215326 | 9 | 183 | 0.0 | 0.0 | 0.00 | 0.66 | 0.66 | 99 | 1013.6 |
| 20260509214823 | 9 | 187 | 0.0 | 0.0 | 0.00 | 0.66 | 0.66 | 99 | 1013.4 |
| 20260509214320 | 9 | 183 | 0.0 | 0.0 | 0.13 | 0.66 | 0.66 | 99 | 1013.4 |
| 20260509213817 | 9 | 187 | 0.0 | 0.0 | 0.13 | 0.66 | 0.66 | 99 | 1013.5 |
| 20260509213312 | 9 | 183 | 0.0 | 0.0 | 0.00 | 0.64 | 0.64 | 99 | 1013.8 |
| 20260509212810 | 9 | 187 | 0.0 | 0.0 | 0.00 | 0.64 | 0.64 | 99 | 1013.7 |
| 20260509212308 | 9 | 186 | 0.0 | 0.0 | 0.00 | 0.64 | 0.64 | 99 | 1013.6 |
| 20260509211803 | 9 | 178 | 0.0 | 0.0 | 0.00 | 0.64 | 0.64 | 99 | 1013.7 |
| 20260509211259 | 9 | 187 | 0.0 | 0.0 | 0.00 | 0.64 | 0.64 | 99 | 1013.8 |
| 20260509210756 | 9 | 183 | 0.0 | 0.0 | 0.00 | 0.64 | 0.64 | 99 | 1013.8 |
| 20260509210254 | 9 | 178 | 0.0 | 0.0 | 0.00 | 0.64 | 0.64 | 99 | 1013.7 |
| 20260509205753 | 9 | 182 | 0.0 | 0.0 | 0.00 | 0.64 | 0.64 | 99 | 1013.7 |
| 20260509205248 | 9 | 184 | 0.0 | 0.0 | 0.00 | 0.64 | 0.64 | 99 | 1014.0 |
| 20260509204744 | 9 | 184 | 0.0 | 0.0 | 0.00 | 0.64 | 0.64 | 99 | 1013.9 |
| 20260509204241 | 9 | 187 | 0.0 | 0.0 | 0.00 | 0.64 | 0.64 | 99 | 1014.0 |
| 20260509203737 | 8 | 183 | 0.0 | 0.0 | 0.00 | 0.64 | 0.64 | 99 | 1014.1 |
| 20260509203235 | 8 | 183 | 0.0 | 0.0 | 0.00 | 0.64 | 0.64 | 99 | 1014.3 |
| 20260509202730 | 8 | 183 | 0.0 | 0.0 | 0.00 | 0.64 | 0.64 | 99 | 1014.1 |
| 20260509202227 | 8 | 183 | 0.0 | 0.0 | 0.00 | 0.64 | 0.64 | 99 | 1014.3 |
| 20260509201721 | 8 | 183 | 0.0 | 0.0 | 0.00 | 0.64 | 0.64 | 99 | 1014.3 |
| 20260509201218 | 8 | 184 | 0.0 | 0.0 | 0.00 | 0.64 | 0.64 | 99 | 1014.6 |
| 20260509200714 | 8 | 184 | 0.0 | 0.0 | 0.00 | 0.64 | 0.64 | 99 | 1014.3 |
| 20260509200209 | 8 | 184 | 0.0 | 0.0 | 0.00 | 0.64 | 0.64 | 99 | 1014.5 |
| 20260509195705 | 8 | 188 | 0.0 | 0.0 | 0.00 | 0.64 | 0.64 | 99 | 1014.6 |
| 20260509195201 | 8 | 187 | 0.0 | 0.0 | 0.00 | 0.64 | 0.64 | 99 | 1014.7 |
| 20260509194655 | 8 | 190 | 0.0 | 0.0 | 0.00 | 0.64 | 0.64 | 99 | 1014.8 |
| 20260509194152 | 8 | 201 | 0.0 | 0.0 | 0.00 | 0.64 | 0.64 | 99 | 1014.7 |
| 20260509193648 | 8 | 190 | 0.0 | 0.0 | 0.00 | 0.64 | 0.64 | 99 | 1014.6 |
| 20260509193144 | 8 | 187 | 0.0 | 0.0 | 0.00 | 0.64 | 0.64 | 99 | 1014.6 |
| 20260509192640 | 8 | 187 | 0.0 | 0.0 | 0.00 | 0.64 | 0.64 | 99 | 1014.6 |
| 20260509192135 | 8 | 185 | 0.0 | 0.0 | 0.00 | 0.64 | 0.64 | 99 | 1014.7 |
| 20260509191629 | 8 | 186 | 0.0 | 0.0 | 0.00 | 0.64 | 0.64 | 99 | 1014.8 |
| 20260509191127 | 8 | 187 | 0.0 | 0.0 | 0.00 | 0.64 | 0.64 | 99 | 1014.7 |
| 20260509190623 | 8 | 187 | 0.0 | 0.0 | 0.00 | 0.64 | 0.64 | 99 | 1014.9 |
| 20260509190120 | 8 | 187 | 0.0 | 0.0 | 0.00 | 0.64 | 0.64 | 99 | 1014.8 |
| 20260509185618 | 8 | 187 | 0.0 | 0.0 | 0.00 | 0.64 | 0.64 | 99 | 1014.8 |
| 20260509185114 | 8 | 208 | 0.0 | 0.0 | 0.00 | 0.64 | 0.64 | 99 | 1015.0 |
| 20260509184612 | 8 | 188 | 0.0 | 1.6 | 0.00 | 0.64 | 0.64 | 99 | 1014.9 |
| 20260509184108 | 8 | 191 | 0.0 | 0.0 | 0.00 | 0.64 | 0.64 | 99 | 1014.8 |
| 20260509183604 | 8 | 183 | 0.0 | 0.0 | 0.00 | 0.64 | 0.64 | 99 | 1014.9 |
| 20260509183100 | 8 | 185 | 0.0 | 0.0 | 0.00 | 0.64 | 0.64 | 99 | 1014.9 |
| 20260509182556 | 8 | 188 | 0.0 | 1.6 | 0.00 | 0.64 | 0.64 | 99 | 1015.2 |
| 20260509182053 | 8 | 186 | 0.0 | 0.0 | 0.00 | 0.64 | 0.64 | 99 | 1015.0 |
| 20260509181552 | 8 | 186 | 0.0 | 0.0 | 0.00 | 0.64 | 0.64 | 99 | 1015.1 |
| 20260509181048 | 8 | 183 | 0.0 | 0.0 | 0.18 | 0.64 | 0.64 | 99 | 1014.8 |
| 20260509180544 | 8 | 188 | 0.0 | 0.0 | 0.18 | 0.64 | 0.64 | 99 | 1015.0 |
| 20260509180042 | 8 | 187 | 0.0 | 0.0 | 0.00 | 0.61 | 0.61 | 99 | 1015.2 |
| 20260509175537 | 8 | 192 | 0.0 | 0.0 | 0.00 | 0.61 | 0.61 | 99 | 1015.1 |
| 20260509175035 | 8 | 192 | 0.0 | 0.0 | 0.00 | 0.61 | 0.61 | 99 | 1015.2 |
| 20260509174531 | 8 | 182 | 0.0 | 1.6 | 0.00 | 0.61 | 0.61 | 99 | 1015.1 |
| 20260509174026 | 8 | 184 | 1.6 | 1.6 | 0.00 | 0.61 | 0.61 | 99 | 1015.4 |
| 20260509173520 | 8 | 185 | 0.0 | 0.0 | 0.00 | 0.61 | 0.61 | 99 | 1015.2 |
| 20260509173017 | 8 | 188 | 1.6 | 1.6 | 0.00 | 0.61 | 0.61 | 99 | 1015.3 |
| 20260509172515 | 8 | 188 | 0.0 | 1.6 | 0.00 | 0.61 | 0.61 | 99 | 1015.4 |
| 20260509172010 | 8 | 187 | 0.0 | 0.0 | 0.00 | 0.61 | 0.61 | 99 | 1015.6 |
| 20260509171506 | 8 | 192 | 0.0 | 1.6 | 0.00 | 0.61 | 0.61 | 99 | 1015.5 |
| 20260509171003 | 8 | 212 | 1.6 | 1.6 | 0.00 | 0.61 | 0.61 | 99 | 1015.4 |
| 20260509170458 | 8 | 185 | 1.6 | 1.6 | 0.00 | 0.61 | 0.61 | 99 | 1015.9 |
| 20260509165954 | 7 | 186 | 0.0 | 0.0 | 0.00 | 0.61 | 0.61 | 99 | 1015.7 |
| 20260509165453 | 7 | 188 | 0.0 | 0.0 | 0.00 | 0.61 | 0.61 | 99 | 1015.8 |
| 20260509164949 | 7 | 199 | 0.0 | 0.0 | 0.00 | 0.61 | 0.61 | 99 | 1015.9 |
| 20260509164445 | 7 | 188 | 0.0 | 0.0 | 0.00 | 0.61 | 0.61 | 99 | 1015.8 |
| 20260509163941 | 7 | 185 | 0.0 | 0.0 | 0.13 | 0.61 | 0.61 | 99 | 1016.0 |
| 20260509163439 | 7 | 189 | 0.0 | 0.0 | 0.13 | 0.61 | 0.61 | 99 | 1016.1 |
| 20260509162937 | 7 | 184 | 0.0 | 0.0 | 0.00 | 0.58 | 0.58 | 99 | 1016.0 |
| 20260509162437 | 7 | 179 | 0.0 | 0.0 | 0.18 | 0.58 | 0.58 | 98 | 1016.1 |
| 20260509161932 | 7 | 187 | 0.0 | 0.0 | 0.18 | 0.58 | 0.58 | 98 | 1016.0 |
| 20260509161429 | 7 | 179 | 0.0 | 0.0 | 0.13 | 0.56 | 0.56 | 98 | 1016.4 |
| 20260509160924 | 7 | 184 | 0.0 | 0.0 | 0.30 | 0.56 | 0.56 | 98 | 1016.3 |